Regional Weather Roundup
Issued by NWS

Home | Current Version | Previous Version | Text Only | Print | Product List | Glossary On
Versions: 1 2 3 4 5 6 7 8 9 10 11 12 13 14 15 16 17 18 19 20 21 22 23 24 25 26 27 28 29 30 31 32 33 34 35 36 37 38 39 40 41 42 43 44 45 46 47 48 49 50
000
ASUS43 KBIS 021320
RWRND

NORTH DAKOTA REGIONAL WEATHER ROUNDUP
NATIONAL WEATHER SERVICE BISMARCK ND
800 AM CDT TUE SEP 02 2014

NOTE: "FAIR" INDICATES FEW OR NO CLOUDS BELOW 12,000 FEET WITH NO
SIGNIFICANT WEATHER AND/OR OBSTRUCTIONS TO VISIBILITY.


NDZ001>003-009>011-017-021400-
NORTHWEST NORTH DAKOTA

CITY           SKY/WX    TMP DP  RH WIND       PRES   REMARKS
WILLISTON      MOCLDY    53  48  83 SW13      29.77R
MINOT          CLOUDY    55  51  86 SE5       29.75F
MINOT AFB      MOCLDY    55  54  99 S6        29.74F
$$

NDZ018>021-031>035-040>046-021400-
SOUTHWEST NORTH DAKOTA

CITY           SKY/WX    TMP DP  RH WIND       PRES   REMARKS
BISMARCK       PTCLDY    51  48  89 CALM      29.83S
DICKINSON      CLEAR     56  44  64 SW16      29.81S
GARRISON         N/A     56  54  93 SE3       29.77F
HETTINGER ARPT CLEAR     48  44  86 CALM      29.89R
$$

NDZ004>008-012>016-024-026-027-054-021400-
NORTHEAST NORTH DAKOTA

CITY           SKY/WX    TMP DP  RH WIND       PRES   REMARKS
GRAND FORKS    PTSUNNY   54  50  86 SW6       29.77S
GRND FRKS AFB  PTSUNNY   54  53  96 W5        29.78R
DEVILS LAKE    MOCLDY    55  48  76 CALM      29.78F
$$

NDZ022-023-025-028>030-036>039-047>053-021400-
SOUTHEAST NORTH DAKOTA

CITY           SKY/WX    TMP DP  RH WIND       PRES   REMARKS
FARGO          MOSUNNY   55  50  83 SW8       29.82R
JAMESTOWN      SUNNY     54  49  83 SW6       29.82S
$$



USA.gov is the U.S. government's official web portal to all federal, state and local government web resources and services.